User: anonymous   Login
Location: Unspecified
(0.0000°N, 0.0000°E)
Time: 01:00:04
(UTC+00:00)
Language:

CINEMA 3 - Orbit

View from above orbital plane
View from above orbital plane
View from above satellite
View from above satellite

Ground track
Ground track

The orbit data is extracted from the following two-line orbital elements,

1 39427U 13066M   18016.05853749  .00000215  00000-0  42326-4 0  9997
2 39427  97.6364  22.1246 0114827  27.4530 333.2678 14.67597754222264
Epoch (UTC): 16 January 2018 01:24:17
Eccentricity: 0.0114827
inclination: 97.6364°
perigee height: 588 km
apogee height: 749 km
right ascension of ascending node: 22.1246°
argument of perigee: 27.4530°
revolutions per day: 14.67597754
mean anomaly at epoch: 333.2678°
orbit number at epoch: 22226

The dashed part of the orbit path shows where the satellite is in the earth's shadow,  

DLR